Lapse_Rate
6.3 5.9 5.6 5.8 5.5 5.3 5.4 5.5 5.4 5.3 5.0 4.7 4.7 4.9 5.1 5.2 5.3 5.4 5.5 5.8 5.8 5.9 6.0 6.2 6.5 6.9 7.1 7.1 6.8 6.5 6.0 5.2 5.2 5.9 6.3 6.7 6.7 6.5 6.5 6.3 6.1 6.2 5.7
5.8 5.7 5.6 5.1 4.6 4.3 5.1 5.3 5.5 5.6 5.4 5.0 4.9 4.9 4.8 4.9 5.1 5.5 5.7 5.8 6.0 6.0 6.0 6.4 6.6 7.1 7.2 7.3 7.0 6.6 5.8 5.8 6.1 6.1 6.5 6.7 6.5 6.1 6.5 6.3 6.3 6.3 5.7
6.0 5.7 5.5 5.5 5.5 5.2 5.2 5.5 5.6 5.9 6.0 5.6 5.3 5.3 5.5 5.3 5.1 5.3 5.5 5.8 5.9 6.1 6.1 6.2 6.7 7.0 7.2 7.1 6.7 6.0 6.0 6.1 6.2 6.5 6.6 6.2 6.0 6.1 6.4 6.7 6.5 6.1 5.6
5.4 5.4 5.3 5.5 5.5 5.5 5.4 5.4 5.5 5.7 5.9 6.2 5.9 5.5 5.3 5.5 5.7 5.7 5.5 5.7 5.9 6.0 6.1 6.4 6.7 6.8 6.9 6.8 6.6 6.3 5.8 5.9 6.1 6.0 6.0 5.9 6.0 6.0 5.5 5.5 6.1 5.9 6.2
6.0 5.7 5.6 5.6 5.5 5.4 5.5 5.4 5.5 5.8 5.9 6.2 6.3 5.9 5.7 5.8 5.8 6.0 5.8 5.6 5.9 6.0 6.0 6.2 6.5 6.6 6.9 6.6 6.2 5.9 6.3 6.2 6.2 6.0 5.5 5.9 6.2 5.7 5.5 5.2 6.0 6.2 6.3
5.6 5.5 5.4 5.3 5.2 5.2 5.1 5.1 5.2 5.6 5.9 6.0 6.0 6.0 6.5 6.4 6.5 6.3 6.4 6.3 6.0 5.7 5.7 6.0 6.1 6.7 6.6 6.6 6.2 6.3 6.2 6.1 6.2 6.4 6.4 6.4 5.9 5.5 5.3 5.6 5.9 5.8 6.0
5.6 5.3 5.3 5.4 5.5 5.6 5.6 5.5 5.5 5.6 5.8 5.6 5.6 5.4 6.1 6.7 6.8 6.6 6.4 6.2 6.1 5.9 6.0 6.1 6.1 6.4 6.8 6.5 6.5 6.8 7.0 6.6 6.6 6.4 6.2 6.0 5.8 5.6 5.8 5.8 6.2 6.3 6.2
5.5 5.5 5.3 5.1 5.0 5.4 5.5 5.6 5.9 5.9 6.1 6.0 6.0 5.8 5.9 6.3 7.0 6.8 6.4 6.4 6.4 6.3 5.9 6.1 6.0 6.3 6.5 6.6 6.8 7.2 7.0 7.1 7.1 6.8 6.8 6.6 6.4 6.2 6.1 6.1 6.2 6.3 6.2
5.4 5.3 5.1 5.0 5.1 5.6 5.5 5.5 5.7 6.1 6.9 6.5 6.5 6.3 6.2 6.5 6.8 6.7 6.4 6.5 6.4 6.3 6.3 6.1 6.0 5.9 5.8 6.6 7.4 7.4 7.3 7.2 7.0 6.8 6.6 6.4 6.3 6.2 6.3 6.4 6.6 6.6 6.5
5.0 5.1 5.2 5.1 5.3 5.4 5.5 5.4 5.3 6.1 6.7 6.3 6.3 6.2 6.2 6.4 6.6 6.6 6.5 6.5 6.4 6.2 6.1 6.2 6.2 6.3 6.3 6.9 7.0 7.3 7.2 6.9 6.7 6.6 6.3 6.3 6.4 6.4 6.5 6.6 6.5 6.5 6.4
4.8 4.6 4.5 4.6 4.6 5.0 5.2 5.3 5.1 5.4 5.9 5.8 5.6 5.8 5.9 6.1 6.3 6.2 5.7 6.1 6.4 6.5 5.7 5.7 6.3 6.6 6.4 6.9 7.0 6.9 6.8 6.5 6.4 6.4 6.4 6.4 6.6 6.6 6.6 6.6 6.4 6.3 6.3
5.1 4.8 4.6 4.2 4.4 4.9 5.1 5.3 5.1 5.2 5.3 5.5 5.4 5.6 5.8 5.9 6.0 5.8 5.5 5.6 6.0 6.0 6.0 5.5 5.8 6.5 6.4 6.6 6.7 6.8 6.6 6.5 6.5 6.7 6.7 6.7 6.7 6.7 6.7 6.4 6.2 6.2 6.4
5.5 5.4 4.9 4.6 4.5 4.7 5.1 5.3 5.2 5.3 5.2 5.3 5.3 5.6 5.8 5.8 5.9 5.9 5.5 5.7 6.0 6.1 5.9 6.1 6.2 6.6 6.1 6.5 6.7 6.5 6.2 6.6 6.8 6.9 7.1 7.1 6.8 6.8 6.8 6.4 6.1 6.1 6.3
5.6 5.7 5.6 5.4 5.1 5.0 4.6 4.8 5.2 5.5 5.3 5.2 5.2 5.3 5.7 5.9 5.8 5.7 5.1 5.5 6.2 6.2 6.2 6.1 6.1 5.7 6.3 6.4 6.5 6.7 6.6 6.5 7.2 7.4 7.3 7.2 6.8 6.7 6.5 6.3 6.1 6.2 6.4
5.5 5.6 5.7 5.7 5.4 5.2 5.1 5.0 5.0 5.4 5.5 5.0 5.0 4.8 5.1 5.7 5.6 5.5 5.3 5.7 6.1 6.1 6.0 6.1 6.2 6.1 6.1 6.2 6.5 7.0 7.1 6.7 7.1 7.2 7.1 7.1 7.0 6.8 6.4 6.1 6.2 6.1 6.1
5.4 5.6 5.3 5.1 5.7 5.8 5.8 5.5 5.5 5.4 5.3 5.6 5.3 5.0 5.0 5.3 5.7 5.6 5.5 5.7 6.0 6.0 6.2 6.2 6.4 6.4 6.5 6.3 6.4 6.6 6.9 6.8 7.0 6.9 6.9 6.9 6.9 6.8 6.4 6.1 6.1 5.9 6.0
5.5 5.7 5.2 5.1 5.5 5.6 5.8 5.8 5.5 5.7 5.5 5.5 5.4 5.2 5.2 5.0 5.5 5.6 5.8 5.6 5.9 6.2 6.0 6.2 6.4 6.7 6.6 6.5 6.7 6.9 7.0 7.0 6.7 6.7 6.9 6.9 6.7 6.7 6.5 6.1 5.9 5.8 5.9
5.0 5.1 5.2 5.0 4.9 5.1 5.2 5.1 5.3 5.3 5.4 5.4 5.6 5.3 5.2 5.0 5.0 5.4 5.8 5.7 5.7 6.1 6.0 6.3 6.7 6.8 6.9 6.8 6.7 6.9 7.0 6.8 6.8 6.8 6.7 6.7 6.6 6.7 6.5 6.1 5.9 6.0 5.8
4.6 4.9 5.0 4.7 4.9 5.0 5.1 5.1 5.3 5.1 5.1 5.3 5.3 5.3 5.2 5.1 4.8 4.5 5.0 5.4 5.9 6.3 6.3 6.2 6.4 6.7 6.8 6.8 6.9 7.0 7.1 7.0 6.9 6.7 6.5 6.5 6.6 6.7 6.4 6.1 5.8 5.6 5.1
4.5 4.8 4.7 4.8 4.8 5.1 5.2 5.2 4.9 4.8 4.8 5.0 5.2 5.3 5.2 4.8 4.6 5.0 4.6 5.4 5.8 6.0 6.6 6.2 6.1 6.3 6.7 6.7 6.8 7.0 7.2 7.0 6.8 6.8 6.6 6.5 6.7 6.6 6.4 5.8 5.4 5.4 5.1
4.4 4.9 4.6 5.0 4.7 5.0 5.1 5.0 5.1 5.2 5.2 4.9 5.1 5.1 5.2 5.1 4.8 4.7 5.0 5.5 5.8 5.6 5.0 5.8 6.2 6.1 6.4 6.7 6.7 6.7 6.8 7.0 7.1 7.1 7.0 6.9 6.7 6.6 6.0 5.5 5.3 5.1 4.5
4.7 4.8 4.6 5.1 5.0 4.7 5.2 5.2 5.2 5.2 5.4 5.1 5.0 5.1 5.1 5.6 5.0 4.9 5.5 5.7 5.6 5.3 5.1 5.2 5.6 5.9 6.2 6.8 6.7 6.8 6.8 6.8 7.1 7.5 6.5 6.9 6.4 6.0 5.9 5.4 5.3 4.8 5.2
4.8 4.9 4.5 4.9 4.9 4.7 4.9 5.3 5.3 5.0 5.1 4.9 4.9 4.9 5.0 5.3 5.1 5.1 5.2 5.4 5.3 5.2 5.0 4.9 5.2 5.7 5.9 6.3 6.3 6.4 6.6 6.8 7.2 7.3 7.2 6.4 6.0 6.0 5.6 5.4 5.3 5.2 4.9
5.1 4.5 4.6 4.6 4.8 4.7 4.8 5.0 5.2 5.2 5.1 4.9 4.5 4.6 4.8 4.9 5.0 5.0 5.2 5.4 5.4 5.5 5.6 5.3 5.3 5.5 5.5 5.4 5.9 5.5 6.0 6.6 6.7 6.8 6.6 6.2 6.0 5.7 5.9 5.4 5.1 4.5 5.0
5.2 4.7 4.3 4.3 4.6 4.7 4.7 4.5 4.8 4.9 5.1 5.0 4.9 4.8 4.7 4.6 4.5 4.7 4.9 5.0 4.9 5.2 5.6 5.5 5.0 4.8 5.2 5.5 5.9 5.7 5.4 6.7 7.0 6.8 6.6 6.2 5.7 6.1 5.8 5.4 4.4 4.9 4.9
5.0 5.0 4.7 4.2 4.6 4.6 4.7 4.4 4.4 4.4 4.5 4.5 4.4 4.4 4.6 4.5 4.9 5.5 5.6 5.6 5.2 4.9 5.0 5.2 4.9 4.9 5.0 4.8 5.5 6.5 6.3 6.7 6.7 6.4 6.1 5.8 5.9 5.9 5.7 4.7 4.9 5.0 5.4
Wind_Speed
6 5 5 6 7 6 5 5 4 3 2 3 3 4 5 6 8 6 8 10 7 7 8 12 12 10 8 8 9 8 9 9 11 12 3 5 4 6 5 1 5 5 11
6 6 7 6 6 6 6 6 5 6 5 6 6 4 5 6 8 8 9 9 10 10 12 10 13 10 11 12 9 10 9 11 9 6 4 5 6 4 5 4 5 5 5
7 6 6 7 7 7 7 7 7 6 6 5 5 5 5 6 7 10 10 10 11 12 11 12 14 10 11 9 6 6 4 4 2 3 4 3 3 1 3 2 3 4 4
5 6 6 7 7 7 7 7 7 7 7 6 6 6 6 6 6 9 11 9 8 9 10 11 12 11 12 9 6 7 5 4 3 2 2 2 2 1 2 2 2 2 2
5 6 7 7 7 7 7 7 7 5 5 6 6 5 6 6 6 6 5 6 8 8 6 8 10 9 11 8 4 6 7 4 3 3 2 2 2 1 2 1 1 2 3
7 7 7 7 6 7 7 7 7 6 5 5 5 5 6 5 10 13 6 5 6 6 6 9 10 9 13 16 15 13 12 9 5 4 3 2 3 3 3 3 2 0 3
9 10 10 10 12 13 12 10 8 7 6 7 7 6 7 6 9 13 13 8 9 6 5 4 7 7 12 14 16 15 15 13 12 7 6 5 5 7 5 3 3 2 3
8 9 11 12 13 14 15 16 13 7 8 7 7 7 7 8 11 16 16 11 9 9 5 5 4 10 10 11 11 8 8 8 8 6 7 7 5 6 4 4 4 2 3
14 15 16 17 19 21 22 17 11 8 8 7 6 7 9 8 12 16 11 8 10 9 4 3 6 8 14 14 12 10 7 5 5 8 6 8 9 9 6 4 0 1 2
18 18 16 17 18 17 16 15 15 9 11 7 7 8 11 11 11 15 11 6 6 4 2 2 9 11 17 13 10 8 8 6 6 4 1 2 5 4 7 5 4 3 2
19 15 18 15 17 19 19 17 12 9 7 7 7 9 11 11 9 11 16 9 6 4 2 4 5 8 16 15 10 8 9 7 5 6 5 4 4 5 4 4 5 5 3
18 18 18 16 13 13 16 13 13 13 12 10 11 10 9 7 11 9 15 16 11 7 7 5 9 15 12 15 11 12 11 9 5 5 4 4 3 2 4 4 5 7 6
18 17 16 16 14 13 13 13 10 11 9 9 9 10 9 8 7 12 13 17 17 8 7 13 23 17 15 6 6 8 7 5 5 4 4 4 4 5 3 2 3 5 5
18 16 14 13 14 13 10 10 11 11 10 10 11 10 8 6 4 4 4 6 9 9 9 8 15 18 8 8 6 8 5 3 5 7 4 3 3 3 3 3 3 2 1
16 14 13 11 12 11 11 10 10 12 10 8 9 8 8 7 5 8 7 6 5 7 8 7 4 4 4 3 1 2 4 5 6 4 4 4 4 4 4 4 3 3 4
14 11 10 9 9 9 9 10 15 18 17 13 13 11 7 2 9 12 11 9 11 8 4 4 6 4 7 7 7 6 5 7 9 8 8 6 5 5 4 3 3 4 4
14 14 11 12 10 9 9 9 9 9 18 19 14 11 10 3 11 7 7 7 7 5 2 5 6 6 6 6 7 6 6 8 9 9 8 7 6 5 4 4 4 4 3
15 23 12 10 10 9 9 10 8 8 8 8 12 15 13 13 12 8 3 3 1 2 1 1 4 6 6 7 7 6 6 5 6 6 6 6 6 4 3 4 4 4 3
13 11 10 9 9 10 9 9 9 9 8 8 7 7 11 14 14 13 12 6 5 4 3 2 2 4 6 7 6 7 7 5 6 5 5 6 5 4 4 4 4 5 4
12 19 15 10 8 8 8 9 8 9 8 7 7 7 5 6 8 7 9 9 7 6 4 3 3 3 5 7 6 6 6 5 6 6 6 5 5 4 5 5 4 4 3
11 12 13 9 8 8 7 8 8 8 8 7 8 6 9 7 7 8 9 9 9 8 6 5 3 3 4 6 6 6 6 5 5 6 6 5 5 5 5 5 4 5 4
11 10 10 6 6 5 6 7 7 7 7 6 6 7 10 8 8 8 9 9 9 8 7 6 6 4 4 5 6 5 5 5 5 5 4 5 5 4 5 5 5 3 4
10 11 9 9 7 3 1 4 1 5 4 5 6 6 7 8 6 7 7 8 9 9 9 8 6 4 4 4 5 6 6 5 4 4 4 4 5 6 6 5 6 4 3
11 11 10 9 8 8 3 3 3 3 4 4 5 5 6 6 7 6 7 7 10 10 10 9 6 6 4 3 4 4 4 3 4 5 7 6 5 5 5 5 5 4 4
10 10 10 10 9 9 9 5 3 2 3 4 3 5 5 6 6 7 7 7 10 11 11 9 5 7 8 6 5 4 3 4 6 7 5 6 7 9 7 5 4 5 9
10 11 9 9 9 9 9 9 7 4 3 3 3 3 5 5 5 5 5 6 7 8 8 7 6 8 8 4 3 3 1 3 5 7 7 6 7 7 6 6 8 6 11
Wind_Direction
222 237 244 253 251 248 235 244 245 224 240 255 258 310 320 325 305 257 249 253 234 210 194 190 198 192 191 184 192 219 201 186 217 257 195 230 231 241 279 181 235 231 248
211 208 216 225 237 242 246 249 246 243 235 220 216 241 269 284 292 257 253 246 229 214 213 203 211 205 204 198 199 210 196 194 192 192 188 215 215 236 252 281 293 282 268
320 283 253 238 229 227 235 243 243 246 253 251 209 229 253 272 286 273 246 242 233 226 218 214 220 213 221 203 196 208 231 183 244 137 182 189 206 275 266 301 293 277 254
341 321 302 296 286 275 262 253 245 244 249 254 237 230 236 247 259 282 271 246 236 225 222 224 232 233 235 211 185 205 209 191 191 144 142 143 142 172 109 111 350 314 295
305 299 288 279 272 274 273 270 273 272 266 275 281 265 249 250 252 251 266 266 237 252 235 230 232 221 217 218 185 190 188 165 165 187 162 101 119 123 136 181 188 291 288
269 264 262 268 272 267 264 265 261 253 250 255 271 276 274 272 262 244 229 252 241 226 243 255 238 232 233 239 232 190 181 175 176 144 157 151 183 182 161 166 162 69 322
265 268 270 273 276 276 269 255 243 238 231 243 249 254 264 258 251 242 235 232 240 225 191 258 269 242 225 233 235 196 177 181 169 154 161 185 173 187 147 153 183 163 223
280 284 285 282 279 277 275 265 251 225 224 220 225 236 248 263 243 246 235 229 236 253 231 194 305 273 228 177 163 150 163 165 162 169 165 166 163 163 156 162 177 193 292
292 288 284 281 284 279 269 261 253 223 228 222 222 242 249 254 244 247 233 223 230 237 227 242 351 242 203 167 153 157 153 199 183 167 142 156 180 172 164 126 120 108 288
293 288 286 285 271 274 280 279 265 224 229 219 225 227 238 256 263 245 213 222 231 250 189 232 216 221 181 164 151 151 155 212 169 150 156 197 212 204 178 189 152 210 214
292 299 293 283 291 285 277 273 278 254 230 231 235 250 251 234 242 234 215 219 231 260 307 302 298 242 163 168 151 164 181 155 201 189 183 188 199 206 222 201 192 192 205
293 288 287 282 275 286 283 274 259 255 250 243 250 254 241 223 226 227 213 220 212 209 209 280 251 235 218 178 170 171 165 152 159 194 179 201 186 201 249 245 222 224 219
291 286 284 282 277 279 283 286 268 251 248 247 252 251 237 228 229 216 202 207 225 209 210 210 240 236 195 200 145 131 155 162 168 176 205 197 183 195 239 279 250 229 239
288 286 284 276 274 271 270 261 253 254 252 250 247 239 227 212 209 229 199 199 216 203 235 231 224 229 180 170 162 138 167 202 186 206 211 203 135 168 217 202 209 192 250
287 284 280 275 271 269 264 259 260 246 238 241 235 234 230 224 210 205 212 207 201 190 177 226 185 179 165 164 134 202 162 190 214 226 199 188 177 194 223 188 188 185 219
287 285 277 273 270 262 260 262 251 259 274 278 274 260 243 46 168 145 124 124 112 132 166 176 202 191 180 166 176 175 175 193 219 222 221 202 190 203 211 187 184 195 212
291 291 287 281 275 264 260 251 257 244 239 245 239 240 230 213 138 134 104 87 63 97 141 176 194 186 191 182 172 171 178 203 200 209 214 211 201 210 167 193 187 197 218
290 286 281 275 266 262 255 256 250 242 248 239 231 230 226 221 181 202 128 32 17 72 160 152 195 193 183 182 179 185 201 175 188 197 198 196 201 180 170 186 189 193 205
294 288 280 271 262 256 254 252 247 242 240 233 234 229 217 213 207 178 167 222 228 221 196 222 307 213 181 181 179 189 198 193 197 182 200 203 193 165 184 179 181 183 182
299 287 276 268 260 249 242 242 239 237 233 232 224 225 194 168 201 194 194 203 206 212 208 201 240 277 196 182 181 183 194 192 198 191 202 197 185 176 181 162 168 157 188
303 297 287 270 258 245 237 235 231 228 224 221 216 216 183 188 199 201 197 200 200 202 199 205 230 278 229 191 185 177 185 185 191 195 200 190 168 172 165 150 178 165 211
302 296 303 273 271 254 243 243 223 216 213 203 206 204 181 197 199 195 198 194 193 192 191 202 221 223 256 193 181 162 170 182 186 184 186 172 169 151 144 155 163 191 105
315 325 338 345 348 9 342 349 73 171 184 193 202 185 187 197 202 188 183 184 184 187 186 196 204 222 252 222 159 151 149 171 176 160 161 158 164 161 164 165 161 163 119
336 339 347 351 355 355 360 65 85 134 157 169 182 181 177 187 189 185 185 178 177 185 192 198 189 190 232 212 134 140 131 139 154 176 170 162 162 151 150 149 143 181 160
348 350 354 355 358 357 358 20 97 94 114 134 155 160 170 183 193 187 186 184 185 181 187 195 178 184 210 195 180 166 138 127 176 164 163 156 152 151 157 151 161 154 135
356 359 360 360 1 359 2 4 16 47 72 96 127 149 163 171 193 181 173 176 178 180 178 188 182 179 210 178 192 87 65 245 202 195 162 155 147 161 145 140 130 136 147